When you browse on this site, cookies collect data to enhance your experience and personalize the content and advertising you see.
Visit our Privacy Policy to learn more. By continuing to use the site, you agree to this use of cookies and data.
  • In Hungary
  • List of Countries
  • For 7 days
  • Water Temperature
  • Satellite Maps
  • Weather Map
  • News
  • Weather Widgets
  • user-avatar
    Login

    Hourly Weather Nuwejba

    Today, 20 November, Tuesday

    Time Temperature Precipitation Wind Pressure Humidity
    00:00 +16°C° 0 mm 2 mps 694 mmHg 62%
    01:00 +16°C° 0 mm 2 mps 694 mmHg 64%
    02:00 +16°C° 0 mm 2 mps 694 mmHg 67%
    03:00 +15°C° 0 mm 2 mps 694 mmHg 67%
    04:00 +15°C° 0 mm 2 mps 694 mmHg 68%
    05:00 +15°C° 0 mm 2 mps 695 mmHg 68%
    06:00 +16°C° 0 mm 2 mps 695 mmHg 63%
    07:00 +17°C° 0 mm 2 mps 695 mmHg 59%
    08:00 +18°C° 0 mm 2 mps 696 mmHg 54%
    09:00 +19°C° 0 mm 2 mps 696 mmHg 49%
    10:00 +21°C° 0 mm 2 mps 696 mmHg 43%
    11:00 +23°C° 0 mm 2 mps 696 mmHg 38%
    12:00 +23°C° 0 mm 2 mps 696 mmHg 36%
    13:00 +24°C° 0 mm 2 mps 696 mmHg 35%
    14:00 +24°C° 0 mm 2 mps 696 mmHg 33%
    15:00 +24°C° 0 mm 2 mps 696 mmHg 36%
    16:00 +23°C° 0 mm 2 mps 695 mmHg 39%
    17:00 +21°C° 0 mm 2 mps 695 mmHg 42%
    18:00 +20°C° 0 mm 2 mps 695 mmHg 44%
    19:00 +20°C° 0 mm 2 mps 695 mmHg 46%
    20:00 +19°C° 0 mm 2 mps 695 mmHg 49%
    21:00 +19°C° 0 mm 2 mps 695 mmHg 51%
    22:00 +18°C° 0 mm 2 mps 695 mmHg 53%
    23:00 +19°C° 0 mm 1 mps 695 mmHg 55%

    Tomorrow, 21 November, Wednesday

    Time Temperature Precipitation Wind Pressure Humidity
    00:00 +18°C° 0 mm 1 mps 695 mmHg 56%
    01:00 +18°C° 0 mm 1 mps 695 mmHg 57%
    02:00 +16°C° 0 mm 1 mps 694 mmHg 59%
    03:00 +16°C° 0 mm 1 mps 694 mmHg 60%
    04:00 +16°C° 0 mm 1 mps 694 mmHg 60%
    05:00 +16°C° 0 mm 1 mps 693 mmHg 61%
    06:00 +18°C° 0 mm 1 mps 694 mmHg 56%
    07:00 +19°C° 0 mm 1 mps 694 mmHg 52%
    08:00 +20°C° 0 mm 1 mps 695 mmHg 47%
    09:00 +20°C° 0 mm 2 mps 695 mmHg 43%
    10:00 +21°C° 0 mm 2 mps 695 mmHg 38%
    11:00 +24°C° 0 mm 2 mps 695 mmHg 34%
    12:00 +24°C° 0 mm 2 mps 694 mmHg 32%
    13:00 +24°C° 0 mm 2 mps 694 mmHg 31%
    14:00 +25°C° 0 mm 3 mps 694 mmHg 29%
    15:00 +24°C° 0 mm 3 mps 693 mmHg 31%
    16:00 +22°C° 0 mm 3 mps 693 mmHg 33%
    17:00 +21°C° 0 mm 3 mps 693 mmHg 35%
    18:00 +21°C° 0 mm 2 mps 693 mmHg 37%
    19:00 +20°C° 0 mm 2 mps 693 mmHg 38%
    20:00 +20°C° 0 mm 2 mps 693 mmHg 40%
    21:00 +19°C° 0 mm 2 mps 693 mmHg 41%
    22:00 +19°C° 0 mm 2 mps 693 mmHg 42%
    23:00 +19°C° 0 mm 2 mps 693 mmHg 43%

    Day after tomorrow, 22 November, Thursday

    Time Temperature Precipitation Wind Pressure Humidity
    00:00 +19°C° 0 mm 2 mps 693 mmHg 43%
    01:00 +20°C° 0 mm 1 mps 692 mmHg 43%
    02:00 +19°C° 0 mm 1 mps 692 mmHg 43%
    03:00 +19°C° 0 mm 1 mps 692 mmHg 43%
    04:00 +19°C° 0 mm 1 mps 692 mmHg 42%
    05:00 +19°C° 0 mm 1 mps 691 mmHg 42%
    06:00 +18°C° 0 mm 2 mps 692 mmHg 41%
    07:00 +19°C° 0 mm 2 mps 692 mmHg 41%
    08:00 +19°C° 0 mm 2 mps 693 mmHg 40%
    09:00 +20°C° 0 mm 2 mps 693 mmHg 38%
    10:00 +20°C° 0 mm 2 mps 693 mmHg 35%
    11:00 +22°C° 0 mm 1 mps 693 mmHg 32%
    12:00 +21°C° 0 mm 2 mps 692 mmHg 31%
    13:00 +23°C° 0 mm 2 mps 692 mmHg 30%
    14:00 +24°C° 0 mm 3 mps 692 mmHg 29%
    15:00 +22°C° 0 mm 3 mps 691 mmHg 31%
    16:00 +21°C° 0 mm 3 mps 691 mmHg 33%
    17:00 +20°C° 0 mm 2 mps 691 mmHg 35%
    18:00 +19°C° 0 mm 2 mps 691 mmHg 37%
    19:00 +18°C° 0 mm 2 mps 692 mmHg 39%
    20:00 +19°C° 0 mm 1 mps 692 mmHg 41%
    21:00 +18°C° 0 mm 1 mps 692 mmHg 42%
    22:00 +18°C° 0 mm 1 mps 691 mmHg 44%
    23:00 +16°C° 0 mm 1 mps 691 mmHg 45%

    23 November, Friday

    Time Temperature Precipitation Wind Pressure Humidity
    00:00 +16°C° 0 mm 1 mps 691 mmHg 46%
    01:00 +16°C° 0 mm 1 mps 691 mmHg 46%
    02:00 +15°C° 0 mm 2 mps 690 mmHg 47%
    03:00 +15°C° 0 mm 2 mps 690 mmHg 49%
    04:00 +15°C° 0 mm 2 mps 690 mmHg 51%
    05:00 +14°C° 0 mm 2 mps 690 mmHg 53%
    06:00 +15°C° 0 mm 2 mps 691 mmHg 54%
    07:00 +15°C° 0 mm 2 mps 691 mmHg 54%
    08:00 +16°C° 0 mm 2 mps 692 mmHg 54%
    09:00 +17°C° 0 mm 3 mps 692 mmHg 47%
    10:00 +18°C° 0 mm 3 mps 692 mmHg 40%
    11:00 +19°C° 0 mm 4 mps 692 mmHg 33%
    12:00 +19°C° 0 mm 4 mps 691 mmHg 32%
    13:00 +19°C° 0 mm 4 mps 691 mmHg 32%
    14:00 +20°C° 0 mm 4 mps 691 mmHg 32%
    15:00 +19°C° 0 mm 4 mps 691 mmHg 38%
    16:00 +18°C° 0 mm 4 mps 691 mmHg 44%
    17:00 +17°C° 0 mm 4 mps 690 mmHg 50%
    18:00 +17°C° 0 mm 4 mps 691 mmHg 54%
    19:00 +16°C° 0 mm 3 mps 691 mmHg 58%
    20:00 +16°C° 0 mm 3 mps 691 mmHg 62%
    21:00 +14°C° 0.1 mm 3 mps 691 mmHg 64%
    22:00 +15°C° 0.1 mm 2 mps 691 mmHg 66%
    23:00 +14°C° 0.1 mm 2 mps 691 mmHg 69%

    24 November, Saturday

    Time Temperature Precipitation Wind Pressure Humidity
    00:00 +14°C° 0 mm 2 mps 691 mmHg 71%
    01:00 +14°C° 0 mm 2 mps 691 mmHg 72%
    02:00 +13°C° 0 mm 2 mps 691 mmHg 74%
    03:00 +13°C° 0 mm 2 mps 691 mmHg 75%
    04:00 +13°C° 0 mm 2 mps 691 mmHg 76%
    05:00 +12°C° 0 mm 2 mps 690 mmHg 77%
    06:00 +13°C° 0 mm 2 mps 691 mmHg 73%
    07:00 +12°C° 0 mm 3 mps 691 mmHg 68%
    08:00 +13°C° 0 mm 3 mps 692 mmHg 64%
    09:00 +14°C° 0 mm 3 mps 692 mmHg 59%
    10:00 +16°C° 0 mm 3 mps 692 mmHg 53%
    11:00 +16°C° 0 mm 3 mps 692 mmHg 48%
    12:00 +17°C° 0 mm 3 mps 692 mmHg 47%
    13:00 +17°C° 0 mm 3 mps 692 mmHg 46%
    14:00 +17°C° 0 mm 3 mps 691 mmHg 45%
    15:00 +17°C° 0 mm 3 mps 691 mmHg 49%
    16:00 +16°C° 0 mm 3 mps 691 mmHg 52%
    17:00 +16°C° 0 mm 3 mps 691 mmHg 55%
    18:00 +14°C° 0 mm 3 mps 692 mmHg 58%
    19:00 +14°C° 0 mm 3 mps 692 mmHg 61%
    20:00 +14°C° 0 mm 2 mps 693 mmHg 64%
    21:00 +14°C° 0 mm 2 mps 693 mmHg 66%
    22:00 +14°C° 0 mm 2 mps 693 mmHg 68%
    23:00 +13°C° 0 mm 2 mps 693 mmHg 69%

    25 November, Sunday

    Time Temperature Precipitation Wind Pressure Humidity
    00:00 +13°C° 0 mm 2 mps 692 mmHg 71%
    01:00 +13°C° 0 mm 2 mps 692 mmHg 73%
    02:00 +13°C° 0 mm 2 mps 692 mmHg 75%
    03:00 +12°C° 0 mm 2 mps 692 mmHg 77%
    04:00 +12°C° 0 mm 2 mps 692 mmHg 79%
    05:00 +12°C° 0 mm 2 mps 692 mmHg 81%
    06:00 +12°C° 0 mm 2 mps 692 mmHg 78%
    07:00 +13°C° 0 mm 2 mps 693 mmHg 76%
    08:00 +13°C° 0 mm 2 mps 693 mmHg 74%
    09:00 +13°C° 0 mm 3 mps 693 mmHg 69%
    10:00 +14°C° 0 mm 3 mps 693 mmHg 64%
    11:00 +16°C° 0 mm 3 mps 693 mmHg 59%
    12:00 +16°C° 0 mm 3 mps 693 mmHg 56%
    13:00 +17°C° 0 mm 3 mps 693 mmHg 53%
    14:00 +17°C° 0 mm 4 mps 693 mmHg 50%
    15:00 +17°C° 0 mm 3 mps 693 mmHg 53%
    16:00 +16°C° 0 mm 3 mps 693 mmHg 56%
    17:00 +16°C° 0 mm 3 mps 693 mmHg 59%
    18:00 +14°C° 0 mm 3 mps 693 mmHg 62%
    19:00 +15°C° 0 mm 2 mps 693 mmHg 65%
    20:00 +14°C° 0 mm 2 mps 693 mmHg 69%
    21:00 +14°C° 0 mm 2 mps 693 mmHg 71%
    22:00 +13°C° 0 mm 2 mps 693 mmHg 73%
    23:00 +13°C° 0 mm 2 mps 693 mmHg 75%
    Show more